Location: Freistadt
(48.5112°N, 14.5013°E)
Time: 20:40:32
(UTC+02:00)

VELOX 1 - Pass Details

Date: 23 February 2024
Orbit: 607 x 620 km, 98.4° (Epoch: 13 April)

Event Time Altitude Azimuth Distance (km) Brightness Sun altitude
Rises 05:27:02 0° 121° (ESE) 2,888 ? -15.5°
Reaches altitude 10° 05:29:46 10° 103° (ESE) 1,985 ? -15.0°
Maximum altitude 05:32:42 18° 60° (ENE) 1,521 ? -14.6°
Drops below altitude 10° 05:35:37 10° 17° (NNE) 1,988 ? -14.1°
Sets 05:38:21 0° 359° (N) 2,896 ? -13.6°
